Weather History for KMTJ - December, 2012

Change the Weather History Date:

Saturday, December 8, 2012

  Actual Average Record
Temperature  
Mean Temperature 39 °F 28 °F  
Max Temperature 53 °F 39 °F 53 °F (2012)
Min Temperature 24 °F 17 °F -6 °F (2013)
Degree Days  
Heating Degree Days 26 37  
Month to date heating degree days 183 286  
Since 1 July heating degree days 1325 1707  
Cooling Degree Days 0 0  
Month to date cooling degree days 0 0  
Year to date cooling degree days 906 643  
Moisture  
Dew Point 20 °F    
Average Humidity 52    
Maximum Humidity 81    
Minimum Humidity 22    
Precipitation  
Precipitation 0.00 in 0.02 in 0.28 in (2008)
Month to date precipitation T 0.18  
Year to date precipitation 5.48 10.83  
Sea Level Pressure  
Sea Level Pressure 29.83 in    
Wind  
Wind Speed 7 mph (NNW)    
Max Wind Speed 22 mph    
Max Gust Speed 29 mph    
Visibility 10 miles    
Events      
T = Trace of Precipitation, MM = Missing Value Source: NWS Daily Summary

Daily Weather History Graph

Daily Weather History Graph

Search for Another Location

Airport or City:

Trip Planner

Search our weather history database for the weather conditions in past years. The results will help you decide how hot, cold, wet, or windy it might be!

Date:

Astronomy

Dec. 08, 2012 Rise Set
Actual Time 7:16 AM MST 4:50 PM MST
Civil Twilight 6:47 AM MST 5:20 PM MST
Nautical Twilight 6:14 AM MST 5:53 PM MST
Astronomical Twilight 5:42 AM MST 6:25 PM MST
Moon 1:48 AM MST (12/8) 1:19 PM MST (12/8)
Length of Visible Light 10h 32m
Length of Day
9h 33m
Waning Crescent, 27% of the Moon is Illuminated
Dec 8
Waning Crescent
Dec 13
New
Dec 19
First Quarter
Dec 28
Full
Jan 4
Last Quarter

Hourly Weather History & Observations

Time (MST) Temp. Windchill Dew Point Humidity Pressure Visibility Wind Dir Wind Speed Gust Speed Precip Events Conditions
12:53 AM 33.1 °F 27.7 °F 23.0 °F 66% 29.89 in 10.0 mi SSE 5.8 mph - N/A   Clear
1:53 AM 33.1 °F 27.7 °F 24.1 °F 70% 29.88 in 10.0 mi SE 5.8 mph - N/A   Clear
2:53 AM 32.0 °F 25.6 °F 23.0 °F 69% 29.87 in 10.0 mi SE 6.9 mph - N/A   Clear
4:53 AM 30.0 °F 25.2 °F 23.0 °F 75% 29.86 in 10.0 mi SE 4.6 mph - N/A   Mostly Cloudy
5:53 AM 28.0 °F - 21.9 °F 78% 29.88 in 10.0 mi Calm Calm - N/A   Clear
6:53 AM 27.0 °F 21.6 °F 21.0 °F 78% 29.91 in 10.0 mi SSE 4.6 mph - N/A   Clear
7:53 AM 26.1 °F 19.4 °F 19.9 °F 78% 29.91 in 10.0 mi SSE 5.8 mph - N/A   Clear
8:53 AM 33.1 °F - 23.0 °F 66% 29.89 in 10.0 mi Calm Calm - N/A   Clear
9:53 AM 39.9 °F - 23.0 °F 51% 29.86 in 10.0 mi Calm Calm - N/A   Clear
10:53 AM 44.1 °F 41.5 °F 24.1 °F 45% 29.82 in 10.0 mi NNW 4.6 mph - N/A   Clear
11:53 AM 46.9 °F - 23.0 °F 39% 29.79 in 10.0 mi North 8.1 mph - N/A   Clear
12:53 PM 50.0 °F - 21.9 °F 33% 29.73 in 10.0 mi Variable 5.8 mph - N/A   Clear
1:53 PM 52.0 °F - 19.9 °F 28% 29.71 in 10.0 mi NW 9.2 mph 16.1 mph N/A   Scattered Clouds
2:53 PM 51.1 °F - 14.0 °F 23% 29.70 in 10.0 mi West 20.7 mph 27.6 mph N/A   Mostly Cloudy
3:53 PM 48.9 °F - 16.0 °F 27% 29.73 in 10.0 mi West 12.7 mph - N/A   Partly Cloudy
4:53 PM 46.0 °F 44.8 °F 18.0 °F 33% 29.76 in 10.0 mi North 3.5 mph - N/A   Overcast
5:53 PM 44.1 °F - 18.0 °F 35% 29.78 in 10.0 mi Calm Calm - N/A   Overcast
6:53 PM 43.0 °F 36.8 °F 19.0 °F 38% 29.81 in 10.0 mi NNW 11.5 mph 18.4 mph N/A   Overcast
7:12 PM 41.0 °F 31.9 °F 17.6 °F 39% 29.85 in 9.0 mi NW 19.6 mph 25.3 mph N/A   Overcast
7:53 PM 39.0 °F 30.6 °F 18.0 °F 43% 29.85 in 10.0 mi NW 15.0 mph 24.2 mph N/A   Overcast
9:53 PM 37.0 °F 28.9 °F 17.1 °F 44% 29.84 in 10.0 mi NNW 12.7 mph - N/A   Overcast
10:53 PM 35.1 °F 28.6 °F 19.0 °F 52% 29.85 in 10.0 mi North 8.1 mph - N/A   Overcast
11:53 PM 33.1 °F 23.9 °F 21.9 °F 64% 29.86 in 10.0 mi NNW 12.7 mph - N/A   Overcast